Regional Weather Roundup
Issued by NWS

Home | Current Version | Previous Version | Graphics & Text | Print | Product List | Glossary On
Versions: 1 2 3 4 5 6 7 8 9 10 11 12 13 14 15 16 17 18 19 20 21 22 23 24 25 26 27 28 29 30 31 32 33 34 35 36 37 38 39 40 41 42 43 44 45 46 47 48 49 50
000
ASUS43 KOAX 210310
RWRNE

WEATHER ROUNDUP FOR NEBRASKA
NATIONAL WEATHER SERVICE OMAHA NE
900 PM CST SAT DEC 20 2014

NOTES: SATELLITE DATA IS BEING USED TO AUGMENT CLOUD COVER ABOVE
       12000 FEET.
       "FAIR" INDICATES FEW OR NO CLOUDS BELOW 12,000 FEET WITH NO
       SIGNIFICANT WEATHER AND/OR OBSTRUCTIONS TO VISIBILITY.

  * THESE STATIONS DO NOT REPORT WEATHER SUCH AS RAIN...SNOW OR FOG.

NEZ001>004-019>022-054>056-210400-
NEBRASKA PANHANDLE

CITY           SKY/WX    TMP DP  RH WIND       PRES   REMARKS
SCOTTSBLUFF    MOCLDY    30  23  75 NW7       29.92S WCI  23
ALLIANCE       MOCLDY    23  20  88 W5        29.90S WCI  17
CHADRON        MOCLDY    29  24  82 SW6       29.88F WCI  23
KIMBALL        CLOUDY    34  26  74 CALM      29.91F
SIDNEY         CLOUDY    33  26  75 SW9       29.93F WCI  25
$$

NEZ057>060-069>072-079>082-210400-
SOUTHWEST NEBRASKA

CITY           SKY/WX    TMP DP  RH WIND       PRES   REMARKS
NORTH PLATTE   CLEAR     25  22  88 NW6       29.94S WCI  18
IMPERIAL       PTCLDY    33  25  72 SW3       29.94F
LEXINGTON      CLEAR     33  30  88 SW3       29.93F
MCCOOK         CLEAR     33  27  78 SW9       29.95S WCI  25
OGALLALA       PTCLDY    21  19  93 W6        29.93F WCI  14
$$

NEZ005>010-023>029-035>040-094-210400-
NORTH CENTRAL NEBRASKA

CITY           SKY/WX    TMP DP  RH WIND       PRES   REMARKS
VALENTINE      CLOUDY    29  25  85 W5        29.90S WCI  24
AINSWORTH      CLEAR     27  24  87 W8        29.90S WCI  19
BROKEN BOW     CLEAR     30  26  85 CALM      29.92F
O`NEILL        CLOUDY    31  31 100 S5        29.93S FOG     WCI  27
THEDFORD       CLEAR     28  26  93 CALM      29.91F
$$

NEZ041-046>049-061>064-073>077-083>087-210400-
SOUTH CENTRAL NEBRASKA

CITY           SKY/WX    TMP DP  RH WIND       PRES   REMARKS
GRAND ISLAND   PTCLDY    29  28  96 S6        29.97F FOG     WCI  23
AURORA         FOG       31  31 100 SE7       29.97F VSB 1/2 WCI  24
HASTINGS       PTCLDY    33  31  92 S8        29.95F FOG     WCI  26
HEBRON         CLOUDY    32  31  96 CALM      30.00F FOG
HOLDREGE       CLEAR     35  31  84 S8        29.94F WCI  29
KEARNEY *      CLEAR     30  28  93 SW5       29.95F WCI  25
YORK           FOG       32  32 100 CALM      29.99S VSB 1/4
$$

NEZ011>018-030>034-042>045-210400-
NORTHEAST NEBRASKA

CITY           SKY/WX    TMP DP  RH WIND       PRES   REMARKS
NORFOLK        CLOUDY    31  31 100 S12       29.98F FOG     WCI  22
ALBION         FOG       31  30  94 S7        29.97F VSB 1/2 WCI  25
BLAIR          CLOUDY    34  32  91 SE10      30.02F FOG     WCI  26
COLUMBUS *     CLOUDY    32  28  86 SE5       30.01F WCI  27
FREMONT        CLOUDY    35  33  94 S8        30.03S WCI  28
TEKAMAH        CLOUDY    34  31  88 S8        30.04F WCI  27
WAYNE          FOG       31  31  99 S16       30.00F VSB 1   WCI  20
$$

NEZ050>053-065>068-078-088>093-210400-
SOUTHEAST NEBRASKA

CITY           SKY/WX    TMP DP  RH WIND       PRES   REMARKS
LINCOLN        FOG       35  34  96 S8        30.04F VSB 1/2 WCI  29
OMAHA EPPLEY   CLOUDY    35  32  88 S12       30.06F FOG     WCI  27
BEATRICE       MOCLDY    36  36 100 SE6       30.03S FOG     WCI  31
FALLS CITY     CLOUDY    35  33  92 E5        30.07F FOG     WCI  31
NEBRASKA CITY  FOG       34  34 100 S8        30.06F VSB 1/4 WCI  27
PLATTSMOUTH    FOG       33  32  96 SE9       30.05F VSB 1/2 WCI  25
$$

NEZ044-045-051>053-067-210400-
OMAHA AREA

CITY           SKY/WX    TMP DP  RH WIND       PRES   REMARKS
OMAHA EPPLEY   CLOUDY    35  32  88 S12       30.06F FOG     WCI  27
BLAIR          CLOUDY    34  32  91 SE10      30.02F FOG     WCI  26
FREMONT        CLOUDY    35  33  94 S8        30.03S WCI  28
MILLARD        CLOUDY    35  33  91 SE8       30.04F FOG     WCI  28
OFFUTT AFB     CLOUDY    34  32  93 SE10      30.05F FOG     WCI  26
PLATTSMOUTH    FOG       33  32  96 SE9       30.05F VSB 1/2 WCI  25
WAHOO          CLOUDY    35  32  90 SE7       30.03S FOG     WCI  29
$$


USA.gov is the U.S. government's official web portal to all federal, state and local government web resources and services.